Weather Roundup
Issued by NWS Chicago, IL

Home | Current Version | Previous Version | Graphics & Text | Print | Product List | Glossary On
Versions: 1 2 3 4 5 6 7 8 9 10 11 12 13 14 15 16 17 18 19 20 21 22 23 24 25 26 27 28 29 30 31 32 33 34 35 36 37 38 39 40 41 42 43 44 45 46 47 48 49 50
000
NZUS59 KLOT 020212
HRRLOT

CHICAGO AREA WEATHER ROUNDUP
NATIONAL WEATHER SERVICE CHICAGO/ROMEOVILLE IL
900 PM CDT SAT AUG 01 2015

NOTE: "FAIR" INDICATES FEW OR NO CLOUDS BELOW 12,000 FEET WITH NO
SIGNIFICANT WEATHER AND/OR OBSTRUCTIONS TO VISIBILITY.

* THESE STATIONS ARE NOT UNDER NWS QUALITY CONTROL. THEY ALSO MAY NOT
  REPORT WEATHER SUCH AS PRECIPITATION OR FOG.

ILZ005-006-012>014-019>023-020300-
NORTHEAST ILLINOIS

CITY           SKY/WX    TMP DP  RH WIND       PRES   REMARKS
OHARE          MOCLDY    79  62  56 W10       29.90R HX  80
MIDWAY         MOCLDY    81  61  50 SW8       29.90R HX  82
AURORA         MOCLDY    75  64  68 SW7       29.92R
LANSING*       MOCLDY    77  61  59 SW8       29.92S
JOLIET*        MOCLDY    79  65  63 SW5       29.92R HX  80
WAUKEGAN       CLEAR     77  65  66 VRB3      29.88R
DUPAGE AIRPORT MOCLDY    76  64  66 SW9       29.91R
WHEELING       PTCLDY    80  61  52 SW6       29.90R HX  81
KANKAKEE*      MOCLDY    72  67  84 CALM      29.94S
MORRIS*        MOCLDY    74  65  72 W6        29.92R
LEWIS AIRPORT* MOCLDY    77  62  59 SW7       29.92R
NORTHERLY IS     N/A     81  59  47 SW7         N/A  HX  81
$$

WIZ051-052-058>065-066-070>072-020300-
SOUTHEAST WISCONSIN

CITY           SKY/WX    TMP DP  RH WIND       PRES   REMARKS
MILWAUKEE      PTCLDY    74  59  59 S6        29.88R
KENOSHA*       CLEAR     70  62  76 SE3       29.89R
RACINE*        CLEAR     74  62  66 S6        29.89S
BURLINGTON     CLEAR     68  62  81 CALM      29.89R
WAUKESHA       CLEAR     72  57  60 SW3       29.89S
WEST BEND      CLEAR     72  57  60 CALM      29.87R
$$

INZ001>003-010>013-019-020-020300-
NORTHWEST INDIANA

CITY           SKY/WX    TMP DP  RH WIND       PRES   REMARKS
GARY*          NOT AVBL
MICHIGAN CITY* NOT AVBL
RENSSELAER*    NOT AVBL
VALPARAISO     MOCLDY    75  61  61 SW9       29.93R
$$

LMZ740>746-020300-
SOUTHERN LAKE MICHIGAN

STATION/POSITION TIME  SKY/WX   TEMP WIND        PRES    VSBY
                                AIR  DIR/SP/G
                 (UTC)          (F)  (DEG/KT/KT) (MB)    (MI)
HARRISON CRIB    0100            82  250/ 17/ 21   N/A
BURNHAM HARBOR   0200            81  260/  8/ 14   N/A
CALUMET HARBOR   0100            81  230/  5/  8   N/A
BURNS HARBOR     0100            81  220/ 13/ 19 1012.9S
MICHIGAN CITY    0100            80  200/ 12/ 14   N/A
$$

ABBREVIATIONS USED IN REMARKS
   TC - TEMPERATURE IN CELSIUS
  WCI - WIND CHILL INDEX
   HX - HEAT INDEX
  VSB - VISIBILITY
$$


USA.gov is the U.S. government's official web portal to all federal, state and local government web resources and services.